TimeCET,TemperatureF,Dew PointF,Humidity,Sea Level PressureIn,VisibilityMPH,Wind Direction,Wind SpeedMPH,Gust SpeedMPH,PrecipitationIn,Events,Conditions,WindDirDegrees,DateUTC
12:25 AM,50.0,48.2,94,29.74,6.2,WSW,15.0,-,N/A,,Partly Cloudy,240,2012-12-23 23:25:00
12:55 AM,50.0,48.2,94,29.71,6.2,SW,15.0,-,N/A,,Scattered Clouds,230,2012-12-23 23:55:00
1:00 AM,49,47,92,29.74,6,SW,15.7,,,,Mist,230,2012-12-24 00:00:00
1:25 AM,50.0,46.4,87,29.71,6.2,WSW,12.7,-,N/A,,Partly Cloudy,240,2012-12-24 00:25:00
1:55 AM,50.0,46.4,87,29.71,6.2,WSW,12.7,-,N/A,,Mostly Cloudy,240,2012-12-24 00:55:00
2:25 AM,50.0,46.4,87,29.74,6.2,WSW,13.8,-,N/A,,Partly Cloudy,240,2012-12-24 01:25:00
2:55 AM,50.0,46.4,87,29.71,6.2,SW,13.8,-,N/A,,Partly Cloudy,230,2012-12-24 01:55:00
3:25 AM,48.2,46.4,93,29.74,6.2,SW,10.4,-,N/A,,Scattered Clouds,230,2012-12-24 02:25:00
3:55 AM,48.2,46.4,93,29.74,6.2,SW,10.4,-,N/A,,Scattered Clouds,230,2012-12-24 02:55:00
4:00 AM,49,46,87,29.74,9,SW,11.2,,,,Overcast,230,2012-12-24 03:00:00
4:25 AM,48.2,46.4,93,29.71,6.2,SW,10.4,-,N/A,,Partly Cloudy,230,2012-12-24 03:25:00
4:55 AM,48.2,46.4,93,29.71,6.2,SW,9.2,-,N/A,,Partly Cloudy,220,2012-12-24 03:55:00
5:25 AM,48.2,44.6,87,29.71,-9999.0,SSW,10.4,-,N/A,,Clear,210,2012-12-24 04:25:00
5:55 AM,46.4,44.6,93,29.71,-9999.0,SSW,8.1,-,N/A,,Clear,210,2012-12-24 04:55:00
6:25 AM,46.4,44.6,93,29.71,6.2,SSW,8.1,-,N/A,,Partly Cloudy,200,2012-12-24 05:25:00
6:55 AM,46.4,44.6,93,29.71,6.2,South,8.1,-,N/A,Rain,Light Rain,190,2012-12-24 05:55:00
7:00 AM,47,45,90,29.71,7,South,8.9,,,Rain,Light Rain Showers,190,2012-12-24 06:00:00
7:25 AM,46.4,44.6,93,29.68,4.3,South,6.9,-,N/A,Rain,Light Rain,170,2012-12-24 06:25:00
7:55 AM,46.4,46.4,100,29.68,2.8,South,9.2,-,N/A,Rain,Light Rain,180,2012-12-24 06:55:00
8:25 AM,46.4,44.6,93,29.68,2.5,South,8.1,-,N/A,Rain,Light Rain,180,2012-12-24 07:25:00
8:55 AM,46.4,44.6,93,29.68,-9999.0,SSE,9.2,-,N/A,Rain,Light Rain,160,2012-12-24 07:55:00
9:25 AM,46.4,44.6,93,29.68,-9999.0,SSE,9.2,-,N/A,,Light Drizzle,160,2012-12-24 08:25:00
9:55 AM,46.4,44.6,93,29.65,2.5,SSE,9.2,-,N/A,,Light Drizzle,150,2012-12-24 08:55:00
10:00 AM,46,45,95,29.67,2,SSE,11.2,,,Rain,Drizzle,150,2012-12-24 09:00:00
10:25 AM,46.4,44.6,93,29.65,1.6,SE,6.9,-,N/A,,Light Drizzle,140,2012-12-24 09:25:00
10:55 AM,46.4,44.6,93,29.62,1.6,SE,10.4,-,N/A,,Drizzle,140,2012-12-24 09:55:00
11:25 AM,46.4,46.4,100,29.62,1.7,SE,12.7,-,N/A,,Drizzle,140,2012-12-24 10:25:00
11:55 AM,46.4,46.4,100,29.59,2.5,SSE,12.7,-,N/A,,Light Drizzle,150,2012-12-24 10:55:00
12:25 PM,50.0,48.2,94,29.59,3.7,South,12.7,-,N/A,,Overcast,170,2012-12-24 11:25:00
12:55 PM,50.0,50.0,100,29.56,6.2,South,12.7,-,N/A,,Mostly Cloudy,180,2012-12-24 11:55:00
1:00 PM,51,49,92,29.57,5,South,13.4,,,,Mist,180,2012-12-24 12:00:00
1:25 PM,51.8,50.0,94,29.53,6.2,South,12.7,-,N/A,,Partly Cloudy,180,2012-12-24 12:25:00
1:55 PM,51.8,50.0,94,29.50,6.2,South,12.7,-,N/A,,Partly Cloudy,190,2012-12-24 12:55:00
2:25 PM,51.8,50.0,94,29.50,-9999.0,South,12.7,-,N/A,,Clear,190,2012-12-24 13:25:00
2:55 PM,51.8,50.0,94,29.47,-9999.0,South,12.7,-,N/A,,Clear,180,2012-12-24 13:55:00
3:25 PM,51.8,48.2,88,29.44,-9999.0,South,16.1,-,N/A,,Clear,170,2012-12-24 14:25:00
3:55 PM,51.8,48.2,88,29.44,-9999.0,South,18.4,-,N/A,,Clear,170,2012-12-24 14:55:00
4:00 PM,52,49,84,29.45,11,South,17.9,,,,Overcast,170,2012-12-24 15:00:00
4:25 PM,51.8,48.2,88,29.42,-9999.0,South,19.6,-,N/A,,Clear,170,2012-12-24 15:25:00
4:55 PM,51.8,48.2,88,29.39,-9999.0,South,23.0,-,N/A,,Clear,170,2012-12-24 15:55:00
5:25 PM,51.8,48.2,88,29.39,6.2,South,21.9,-,N/A,,Partly Cloudy,180,2012-12-24 16:25:00
5:55 PM,53.6,48.2,82,29.39,6.2,South,20.7,-,N/A,,Mostly Cloudy,190,2012-12-24 16:55:00
6:25 PM,53.6,46.4,77,29.39,6.2,South,21.9,33.4,N/A,,Mostly Cloudy,190,2012-12-24 17:25:00
6:55 PM,53.6,46.4,77,29.39,6.2,SSW,24.2,-,N/A,,Mostly Cloudy,200,2012-12-24 17:55:00
7:00 PM,53,47,73,29.40,25,SSW,24.6,,,,Partly Cloudy,200,2012-12-24 18:00:00
7:25 PM,53.6,46.4,77,29.39,6.2,SSW,25.3,-,N/A,,Mostly Cloudy,210,2012-12-24 18:25:00
7:55 PM,53.6,46.4,77,29.39,6.2,SW,27.6,-,N/A,,Mostly Cloudy,230,2012-12-24 18:55:00
8:25 PM,53.6,46.4,77,29.42,6.2,WSW,32.2,46.0,N/A,,Mostly Cloudy,240,2012-12-24 19:25:00
8:55 PM,51.8,46.4,82,29.44,6.2,WSW,27.6,42.6,N/A,,Scattered Clouds,240,2012-12-24 19:55:00
9:25 PM,50.0,44.6,82,29.44,6.2,WSW,24.2,-,N/A,,Scattered Clouds,240,2012-12-24 20:25:00
9:55 PM,50.0,44.6,82,29.47,6.2,WSW,19.6,-,N/A,,Mostly Cloudy,240,2012-12-24 20:55:00
10:00 PM,49,44,79,29.49,9,WSW,20.1,,,,Overcast,240,2012-12-24 21:00:00
10:25 PM,48.2,44.6,87,29.47,6.2,WSW,16.1,-,N/A,,Scattered Clouds,240,2012-12-24 21:25:00
10:55 PM,48.2,44.6,87,29.47,6.2,WSW,16.1,-,N/A,,Partly Cloudy,240,2012-12-24 21:55:00
11:25 PM,48.2,44.6,87,29.47,6.2,SW,12.7,-,N/A,,Partly Cloudy,230,2012-12-24 22:25:00
11:55 PM,48.2,44.6,87,29.47,6.2,SW,10.4,-,N/A,Rain,Light Rain,220,2012-12-24 22:55:00